EW3182 Weather Reports


Display with metric or nautical units.
time (UTC)temp
F
wind
direction
speed
MPH
gust
MPH
rain 1hr
in
rain 24hr
in
rain mn
in
humidity
%
barometer
mb
20240304124548 65 139 2.0 7.0 0.00 0.00 0.00 87 1009.1
20240304123045 65 208 2.0 6.0 0.00 0.00 0.00 87 1009.0
20240304121540 66 140 0.0 8.0 0.00 0.00 0.00 86 1008.9
20240304120039 66 179 2.0 6.0 0.00 0.00 0.00 86 1008.8
20240304114538 66 228 1.0 4.0 0.00 0.00 0.00 85 1008.7
20240304113038 66 270 1.0 6.0 0.00 0.00 0.00 85 1008.6
20240304111549 67 252 0.0 5.0 0.00 0.00 0.00 85 1008.5
20240304110036 67 242 1.0 7.0 0.00 0.00 0.00 84 1008.4
20240304104533 67 229 2.0 9.0 0.00 0.00 0.00 85 1008.2
20240304103033 67 257 2.0 6.0 0.00 0.00 0.00 85 1008.1
20240304101532 67 224 2.0 6.0 0.00 0.00 0.00 85 1008.1
20240304100031 67 221 3.0 9.0 0.00 0.00 0.00 85 1008.1
20240304094531 67 170 2.0 9.0 0.00 0.00 0.00 85 1007.9
20240304093046 66 203 2.0 7.0 0.00 0.00 0.00 86 1007.9
20240304091530 66 262 3.0 8.0 0.00 0.00 0.00 86 1007.9
20240304090035 66 232 3.0 10.0 0.00 0.00 0.00 86 1007.9
20240304084628 66 162 2.0 7.0 0.00 0.00 0.00 86 1008.0
20240304083029 66 200 2.0 7.0 0.00 0.00 0.00 86 1008.0
20240304081625 66 259 2.0 8.0 0.00 0.00 0.00 85 1008.1
20240304080023 67 211 2.0 5.0 0.00 0.00 0.00 84 1008.1
20240304074518 67 264 2.0 10.0 0.00 0.00 0.00 83 1008.2
20240304073017 67 283 2.0 8.0 0.00 0.00 0.00 82 1008.3
20240304071526 68 195 2.0 9.0 0.00 0.00 0.00 81 1008.3
20240304070014 68 142 2.0 6.0 0.00 0.00 0.00 80 1008.3
20240304064511 68 314 2.0 7.0 0.00 0.00 0.00 79 1008.4
20240304063010 69 242 1.0 8.0 0.00 0.00 0.00 77 1008.4
20240304061506 69 8 3.0 7.0 0.00 0.00 0.00 77 1008.3
20240304060004 69 249 2.0 8.0 0.00 0.00 0.00 76 1008.2
20240304054503 70 218 2.0 8.0 0.00 0.00 0.00 75 1008.2
20240304053002 70 203 0.0 8.0 0.00 0.00 0.00 74 1008.1
20240304051502 70 124 2.0 9.0 0.00 0.00 0.00 73 1008.0
20240304050008 71 188 4.0 9.0 0.00 0.00 0.00 72 1008.1
20240304044607 71 203 3.0 9.0 0.00 0.00 0.00 71 1008.0
20240304043100 71 139 1.0 6.0 0.00 0.00 0.00 71 1008.0
20240304041600 71 268 3.0 12.0 0.00 0.00 0.00 71 1008.0
20240304040123 72 249 3.0 8.0 0.00 0.00 0.00 71 1007.9
20240304034559 72 236 2.0 13.0 0.00 0.00 0.00 71 1007.9
20240304033057 72 198 2.0 10.0 0.00 0.00 0.00 70 1007.9
20240304031600 72 15 2.0 10.0 0.00 0.00 0.00 70 1007.9
20240304030100 72 157 1.0 8.0 0.00 0.00 0.00 70 1008.0
20240304024556 72 245 1.0 6.0 0.00 0.00 0.00 70 1007.9
20240304023102 72 166 1.0 6.0 0.00 0.00 0.00 69 1007.9
20240304021554 72 240 1.0 5.0 0.00 0.00 0.00 68 1007.8
20240304020053 73 228 1.0 8.0 0.00 0.00 0.00 67 1007.7
20240304014555 73 167 1.0 6.0 0.00 0.00 0.00 66 1007.7
20240304013056 73 167 1.0 6.0 0.00 0.00 0.00 65 1007.7
20240304011551 73 97 0.0 4.0 0.00 0.00 0.00 65 1007.5
20240304010050 73 233 1.0 6.0 0.00 0.00 0.00 64 1007.4
20240304004550 74 225 0.0 5.0 0.00 0.00 0.00 63 1007.4
20240304003050 74 143 2.0 8.0 0.00 0.00 0.00 62 1007.1
20240304001549 75 142 1.0 7.0 0.00 0.00 0.00 61 1007.1
20240304000048 75 260 1.0 7.0 0.00 0.00 0.00 59 1007.0
20240303234554 76 236 2.0 8.0 0.00 0.00 0.00 58 1007.0
20240303233048 76 236 3.0 9.0 0.00 0.00 0.00 56 1006.8
20240303231546 77 259 4.0 13.0 0.00 0.00 0.00 55 1006.9
20240303230049 78 292 4.0 11.0 0.00 0.00 0.00 53 1006.9
20240303224545 79 155 3.0 10.0 0.00 0.00 0.00 51 1006.8
20240303223041 79 184 3.0 9.0 0.00 0.00 0.00 49 1006.8
20240303221541 79 151 2.0 10.0 0.00 0.00 0.00 51 1006.9
20240303220041 80 203 2.0 10.0 0.00 0.00 0.00 49 1006.9
20240303214538 79 264 3.0 11.0 0.00 0.00 0.00 49 1007.0
20240303213038 80 266 3.0 11.0 0.00 0.00 0.00 48 1007.2
20240303211536 81 153 2.0 9.0 0.00 0.00 0.00 47 1007.1
20240303210035 80 69 3.0 10.0 0.00 0.00 0.00 47 1007.3
20240303204535 80 262 2.0 10.0 0.00 0.00 0.00 45 1007.4
20240303203032 80 128 3.0 9.0 0.00 0.00 0.00 47 1007.7
20240303201528 80 86 3.0 11.0 0.00 0.00 0.00 49 1008.0
20240303200027 80 73 3.0 9.0 0.00 0.00 0.00 50 1008.1
20240303194533 79 256 2.0 8.0 0.00 0.00 0.00 50 1008.4
20240303193020 78 330 4.0 11.0 0.00 0.00 0.00 51 1008.6
20240303191517 77 174 4.0 11.0 0.00 0.00 0.00 53 1009.0
20240303190016 77 248 4.0 8.0 0.00 0.00 0.00 54 1009.3
20240303184512 76 259 4.0 10.0 0.00 0.00 0.00 55 1009.4
20240303183012 76 208 3.0 9.0 0.00 0.00 0.00 55 1009.6
20240303181510 75 257 4.0 0.0 0.00 0.00 0.00 56 1009.9
20240303180004 74 246 3.0 10.0 0.00 0.00 0.00 58 1010.1
20240303174502 74 218 3.0 7.0 0.00 0.00 0.00 59 1010.4
20240303173103 73 23 3.0 10.0 0.00 0.00 0.00 61 1010.7
20240303171602 72 204 5.0 12.0 0.00 0.00 0.00 62 1010.7
20240303170056 72 153 2.0 10.0 0.00 0.00 0.00 64 1010.8
20240303164553 71 226 2.0 10.0 0.00 0.00 0.00 67 1011.0
20240303163051 70 320 5.0 14.0 0.00 0.00 0.00 67 1011.0
20240303161547 69 249 4.0 12.0 0.00 0.00 0.00 70 1011.2
20240303160043 68 201 2.0 11.0 0.00 0.00 0.00 73 1011.2
20240303154541 67 204 4.0 14.0 0.00 0.00 0.00 75 1011.0
20240303153038 67 235 3.0 9.0 0.00 0.00 0.00 77 1011.1
20240303151534 65 214 4.0 11.0 0.00 0.00 0.00 79 1011.3
20240303150031 65 242 2.0 9.0 0.00 0.00 0.00 81 1011.1
20240303144530 63 229 2.0 11.0 0.00 0.00 0.00 84 1011.0
20240303143028 62 277 4.0 12.0 0.00 0.00 0.00 85 1011.0
20240303141526 61 285 2.0 9.0 0.00 0.00 0.00 86 1010.9
20240303140025 61 245 0.0 7.0 0.00 0.00 0.00 86 1010.9
20240303134522 61 141 1.0 5.0 0.00 0.00 0.00 87 1010.8
20240303133021 61 143 1.0 6.0 0.00 0.00 0.00 87 1010.6
20240303131521 61 214 3.0 7.0 0.00 0.00 0.00 87 1010.4
20240303130019 61 283 1.0 6.0 0.00 0.00 0.00 87 1010.4
20240303124622 61 219 1.0 7.0 0.00 0.00 0.00 87 1010.3